Location: Isola Pescaroli
(45.0500°N, 10.1667°E)
Time: 15:10:37
(UTC+00:00)

SME Rocket - Pass Details

Date: 03 March 2021
Orbit: 550 x 2652 km, 99.9° (Epoch: 18 April)

Event Time Altitude Azimuth Distance (km) Brightness Sun altitude
Rises 19:07:03 0° 15° (NNE) 4,974 7.7 -21.4°
Reaches altitude 10° 19:10:34 10° 16° (NNE) 3,663 6.9 -22.0°
Maximum altitude 19:18:44 84° 105° (ESE) 1,064 4.0 -23.4°
Drops below altitude 10° 19:23:58 10° 194° (SSW) 2,387 6.0 -24.3°
Sets 19:25:52 0° 195° (SSW) 3,154 6.7 -24.6°
